GTI1825 KCVG-KJFK

Flight info

Callsign GTI1825
Flight time N/A
Altitude 41000
Route BARMY5 TYI Q64 SAWED Q108 SIE CAMRN5
Aircraft A333/H-SDE1E2E3FGHIJ2J3J4J5M1RWXYZ/LB2D1

Departure

Time 2026-05-06 06:26
Airport Cincinnati Northern Kentucky International Airport (KCVG)

Arrival

Time N/A
Airport John F. Kennedy International Airport (KJFK)
Time Latitude Longitude Altitude Speed Heading
2026-05-06 05:55 39.03030 -84.65355 892 ft 0 kts 359°
2026-05-06 06:03 39.03029 -84.65355 892 ft 0 kts 359°
2026-05-06 06:13 39.03028 -84.65355 892 ft 0 kts 359°
2026-05-06 06:14 39.03027 -84.65355 892 ft 2 kts 359°
2026-05-06 06:14 39.03002 -84.65358 892 ft 4 kts 14°
2026-05-06 06:15 39.02978 -84.65371 892 ft 4 kts 40°
2026-05-06 06:15 39.02962 -84.65396 893 ft 4 kts 66°
2026-05-06 06:15 39.02954 -84.65429 893 ft 4 kts 86°
2026-05-06 06:15 39.02954 -84.65438 893 ft 4 kts 89°
2026-05-06 06:16 39.02954 -84.65446 895 ft 1 kts 90°
2026-05-06 06:16 39.02954 -84.65447 895 ft 3 kts 90°
2026-05-06 06:20 39.02954 -84.65392 893 ft 8 kts 90°
2026-05-06 06:20 39.02954 -84.65292 891 ft 14 kts 90°
2026-05-06 06:20 39.02954 -84.65152 889 ft 17 kts 90°
2026-05-06 06:21 39.02969 -84.65014 886 ft 15 kts 70°
2026-05-06 06:21 39.03014 -84.64907 886 ft 13 kts 39°
2026-05-06 06:21 39.03088 -84.64889 887 ft 10 kts
2026-05-06 06:21 39.03174 -84.64890 886 ft 16 kts 359°
2026-05-06 06:22 39.03298 -84.64891 887 ft 21 kts 359°
2026-05-06 06:22 39.03459 -84.64889 887 ft 24 kts
2026-05-06 06:22 39.03623 -84.64888 883 ft 24 kts
2026-05-06 06:22 39.03782 -84.64888 881 ft 22 kts
2026-05-06 06:23 39.03949 -84.64887 877 ft 26 kts
2026-05-06 06:23 39.04135 -84.64887 877 ft 26 kts 360°
2026-05-06 06:23 39.04298 -84.64886 878 ft 22 kts
2026-05-06 06:23 39.04433 -84.64898 879 ft 15 kts 336°
2026-05-06 06:24 39.04463 -84.65003 881 ft 13 kts 271°
2026-05-06 06:24 39.04464 -84.65118 878 ft 12 kts 268°
2026-05-06 06:24 39.04464 -84.65227 877 ft 12 kts 274°
2026-05-06 06:24 39.04513 -84.65296 876 ft 12 kts 348°
2026-05-06 06:25 39.04602 -84.65304 875 ft 13 kts 352°
2026-05-06 06:25 39.04630 -84.65351 876 ft 4 kts 269°
2026-05-06 06:25 39.04631 -84.66310 877 ft 129 kts 270°
2026-05-06 06:26 39.04614 -84.67768 1100 ft 192 kts 273°
2026-05-06 06:26 39.04624 -84.69646 1930 ft 222 kts 277°
2026-05-06 06:26 39.04712 -84.71582 3178 ft 207 kts 278°
2026-05-06 06:26 39.04807 -84.73396 4204 ft 203 kts 267°
2026-05-06 06:27 39.04761 -84.75197 4767 ft 202 kts 264°
2026-05-06 06:27 39.04702 -84.77006 5205 ft 202 kts 265°
2026-05-06 06:27 39.04661 -84.78793 5640 ft 201 kts 265°
2026-05-06 06:27 39.04638 -84.80600 6078 ft 201 kts 265°
2026-05-06 06:28 39.04622 -84.82401 6489 ft 200 kts 264°
2026-05-06 06:28 39.04612 -84.84160 6893 ft 198 kts 264°
2026-05-06 06:28 39.04607 -84.86010 7306 ft 219 kts 266°
2026-05-06 06:28 39.04891 -84.88067 7810 ft 247 kts 283°
2026-05-06 06:29 39.05639 -84.89886 8614 ft 260 kts 297°
2026-05-06 06:29 39.07104 -84.91371 9637 ft 283 kts 327°
2026-05-06 06:29 39.09131 -84.91832 10311 ft 317 kts 353°
2026-05-06 06:29 39.11402 -84.91134 10613 ft 355 kts 14°
2026-05-06 06:30 39.13724 -84.89778 11091 ft 374 kts 19°
2026-05-06 06:30 39.16122 -84.88413 11798 ft 376 kts 10°
2026-05-06 06:30 39.18674 -84.88045 12554 ft 365 kts 348°
2026-05-06 06:30 39.21211 -84.88370 13344 ft 367 kts 343°
2026-05-06 06:31 39.23730 -84.88782 14097 ft 372 kts 345°
2026-05-06 06:31 39.26368 -84.88813 14766 ft 390 kts 359°
2026-05-06 06:31 39.27272 -84.88622 14982 ft 396 kts
2026-05-06 06:31 39.29904 -84.87318 15697 ft 413 kts 24°
2026-05-06 06:32 39.32154 -84.84985 16385 ft 426 kts 44°
2026-05-06 06:32 39.33977 -84.81904 17125 ft 432 kts 53°
2026-05-06 06:32 39.35659 -84.78666 17799 ft 437 kts 54°
2026-05-06 06:32 39.37325 -84.75409 18408 ft 442 kts 54°
2026-05-06 06:33 39.39035 -84.72082 18968 ft 446 kts 54°
2026-05-06 06:33 39.40770 -84.68723 19538 ft 451 kts 53°
2026-05-06 06:33 39.42525 -84.65335 20098 ft 454 kts 53°
2026-05-06 06:33 39.44273 -84.61965 20658 ft 458 kts 53°
2026-05-06 06:34 39.46084 -84.58475 21236 ft 463 kts 54°
2026-05-06 06:34 39.47870 -84.55033 21696 ft 469 kts 52°
2026-05-06 06:34 39.49721 -84.51534 22222 ft 473 kts 52°
2026-05-06 06:34 39.51601 -84.47999 22713 ft 477 kts 52°
2026-05-06 06:35 39.53494 -84.44430 23218 ft 480 kts 51°
2026-05-06 06:35 39.55575 -84.41086 23689 ft 481 kts 41°
2026-05-06 06:35 39.58055 -84.38184 24046 ft 482 kts 33°
2026-05-06 06:35 39.60695 -84.35464 24373 ft 485 kts 31°
2026-05-06 06:36 39.63376 -84.32751 24800 ft 487 kts 31°
2026-05-06 06:36 39.66022 -84.30068 25218 ft 489 kts 30°
2026-05-06 06:36 39.68710 -84.27330 25659 ft 491 kts 30°
2026-05-06 06:36 39.71405 -84.24575 26087 ft 493 kts 29°
2026-05-06 06:37 39.74115 -84.21801 26474 ft 496 kts 29°
2026-05-06 06:37 39.76839 -84.19007 26871 ft 499 kts 29°
2026-05-06 06:37 39.79534 -84.16237 27252 ft 501 kts 29°
2026-05-06 06:37 39.82276 -84.13390 27613 ft 506 kts 31°
2026-05-06 06:38 39.84886 -84.10238 27979 ft 513 kts 36°
2026-05-06 06:38 39.87406 -84.06940 28389 ft 516 kts 36°
2026-05-06 06:38 39.89929 -84.03593 28750 ft 520 kts 36°
2026-05-06 06:38 39.92485 -84.00194 29080 ft 523 kts 36°
2026-05-06 06:39 39.95012 -83.96830 29448 ft 526 kts 36°
2026-05-06 06:39 39.97579 -83.93412 29802 ft 529 kts 36°
2026-05-06 06:39 40.00162 -83.89970 30098 ft 531 kts 36°
2026-05-06 06:39 40.02728 -83.86544 30478 ft 531 kts 36°
2026-05-06 06:40 40.05324 -83.83080 30790 ft 533 kts 36°
2026-05-06 06:40 40.07937 -83.79590 31082 ft 536 kts 36°
2026-05-06 06:40 40.10545 -83.76103 31384 ft 539 kts 36°
2026-05-06 06:40 40.13179 -83.72577 31662 ft 542 kts 36°
2026-05-06 06:41 40.15816 -83.69039 31972 ft 543 kts 36°
2026-05-06 06:41 40.18424 -83.65535 32366 ft 543 kts 36°
2026-05-06 06:41 40.20682 -83.62499 32708 ft 542 kts 35°
2026-05-06 06:42 40.22275 -83.60355 32934 ft 542 kts 35°
2026-05-06 06:42 40.24889 -83.56833 33312 ft 541 kts 35°
2026-05-06 06:42 40.27517 -83.53286 33685 ft 541 kts 35°
2026-05-06 06:42 40.30125 -83.49760 34124 ft 538 kts 34°
2026-05-06 06:43 40.32734 -83.46228 34425 ft 538 kts 34°
2026-05-06 06:43 40.35354 -83.42679 34691 ft 539 kts 34°
2026-05-06 06:43 40.37933 -83.39182 34959 ft 539 kts 34°
2026-05-06 06:43 40.40551 -83.35628 35225 ft 539 kts 34°
2026-05-06 06:44 40.43153 -83.32090 35490 ft 539 kts 34°
2026-05-06 06:44 40.45758 -83.28546 35745 ft 539 kts 34°
2026-05-06 06:44 40.48376 -83.24979 36030 ft 539 kts 34°
2026-05-06 06:44 40.50977 -83.21430 36294 ft 540 kts 34°
2026-05-06 06:45 40.53558 -83.17906 36543 ft 540 kts 34°
2026-05-06 06:45 40.56167 -83.14339 36808 ft 540 kts 33°
2026-05-06 06:45 40.58762 -83.10782 37195 ft 537 kts 33°
2026-05-06 06:45 40.61355 -83.07240 37483 ft 535 kts 31°
2026-05-06 06:46 40.63939 -83.03771 37628 ft 536 kts 31°
2026-05-06 06:46 40.66559 -83.00239 37795 ft 537 kts 31°
2026-05-06 06:46 40.69158 -82.96705 37974 ft 537 kts 31°
2026-05-06 06:46 40.71753 -82.93154 38205 ft 538 kts 31°
2026-05-06 06:47 40.74328 -82.89617 38376 ft 538 kts 31°
2026-05-06 06:47 40.76919 -82.86046 38567 ft 538 kts 32°
2026-05-06 06:47 40.79508 -82.82470 38723 ft 538 kts 32°
2026-05-06 06:48 40.83821 -82.76506 38851 ft 539 kts 32°
2026-05-06 06:48 40.88989 -82.69339 38854 ft 536 kts 32°
2026-05-06 06:49 40.94112 -82.62220 38852 ft 536 kts 32°
2026-05-06 06:49 40.99252 -82.55063 38853 ft 536 kts 32°
2026-05-06 06:50 41.04382 -82.47901 38856 ft 536 kts 32°
2026-05-06 06:50 41.09522 -82.40710 38860 ft 536 kts 32°
2026-05-06 06:51 41.14633 -82.33541 38859 ft 536 kts 32°
2026-05-06 06:51 41.19740 -82.26361 38865 ft 536 kts 32°
2026-05-06 06:52 41.24866 -82.19136 38869 ft 537 kts 32°
2026-05-06 06:52 41.29945 -82.11883 38868 ft 542 kts 37°
2026-05-06 06:52 41.32182 -82.07735 38863 ft 559 kts 49°
2026-05-06 06:53 41.33897 -82.03021 38863 ft 573 kts 60°
2026-05-06 06:53 41.35014 -81.97903 38860 ft 581 kts 72°
2026-05-06 06:53 41.35482 -81.92549 38846 ft 584 kts 84°
2026-05-06 06:54 41.35293 -81.81781 38865 ft 577 kts 87°
2026-05-06 06:54 41.35213 -81.71127 38862 ft 574 kts 85°
2026-05-06 06:55 41.35287 -81.60508 38866 ft 575 kts 84°
2026-05-06 06:55 41.35402 -81.49833 38853 ft 575 kts 84°
2026-05-06 06:56 41.35519 -81.39186 38850 ft 576 kts 84°
2026-05-06 06:56 41.35628 -81.28594 38845 ft 576 kts 84°
2026-05-06 06:56 41.35677 -81.23590 38842 ft 0 kts 84°
2026-05-06 06:57 41.66232 -79.04419 38878 ft 28155 kts 75°
2026-05-06 06:57 41.75667 -78.57366 39570 ft 552 kts 75°
2026-05-06 06:57 41.75907 -78.52228 39866 ft 552 kts 86°
2026-05-06 06:57 41.75501 -78.47091 39740 ft 558 kts 98°
2026-05-06 06:58 41.74445 -78.42126 39485 ft 561 kts 110°
2026-05-06 06:58 41.72745 -78.37433 39249 ft 558 kts 122°
2026-05-06 06:58 41.70477 -78.33244 39005 ft 550 kts 134°
2026-05-06 06:58 41.67884 -78.29515 38848 ft 544 kts 137°
2026-05-06 06:59 41.65251 -78.25888 38799 ft 542 kts 137°
2026-05-06 06:59 41.60006 -78.18724 38799 ft 541 kts 137°